Location: La Oliva
(42.2466°N, 2.9955°E)
Time: 07:44:01
(UTC+00:00)

Cosmos 2026 Rocket - Pass Details

Date: 22 April 2021
Orbit: 938 x 1002 km, 82.9° (Epoch: 07 May)

Event Time Altitude Azimuth Distance (km) Brightness Sun altitude
Rises 19:31:56 0° 352° (N) 3,613 7.5 -10.1°
Reaches altitude 10° 19:34:25 10° 352° (N) 2,668 6.8 -10.5°
Maximum altitude 19:40:31 90° 265° (W) 956 4.0 -11.5°
Drops below altitude 10° 19:46:40 10° 175° (S) 2,684 6.0 -12.5°
Sets 19:49:10 0° 175° (S) 3,635 6.6 -12.9°
